Change the Weather History Date:

Saturday, February 23, 2013

  Actual Average Record
Temperature  
Mean Temperature 45 °F 44 °F  
Max Temperature 54 °F 54 °F 83 °F (1996)
Min Temperature 36 °F 34 °F 12 °F (1963)
Degree Days  
Heating Degree Days 20    
Month to date heating degree days 517  
Since 1 July heating degree days 2525  
Cooling Degree Days 0    
Month to date cooling degree days 0  
Year to date cooling degree days 4  
Moisture  
Dew Point 31 °F    
Average Humidity 62    
Maximum Humidity 82    
Minimum Humidity 41    
Precipitation  
Precipitation 0.00 in 0.14 in 3.69 in (1909)
Month to date precipitation 2.36 3.23  
Year to date precipitation 9.50 6.98  
Snow  
Snow 0.00 in 0.00 in 3.80 in (1947)
Month to date snowfall 0.7 2.0  
Since 1 July snowfall 1.0 5.1  
Snow Depth 0.00 in    
Sea Level Pressure  
Sea Level Pressure 29.99 in    
Wind  
Wind Speed 6 mph (North)    
Max Wind Speed 13 mph    
Max Gust Speed 21 mph    
Visibility 10 miles    
Events      
T = Trace of Precipitation, MM = Missing Value Source: NWS Daily Summary

Daily Weather History Graph

Daily Weather History Graph

Search for Another Location

Airport or City:

Trip Planner

Search our weather history database for the weather conditions in past years. The results will help you decide how hot, cold, wet, or windy it might be!

Date:

Astronomy

Feb. 23, 2013 Rise Set
Actual Time 6:24 AM CST 5:36 PM CST
Civil Twilight 5:58 AM CST 6:02 PM CST
Nautical Twilight 5:28 AM CST 6:32 PM CST
Astronomical Twilight 4:58 AM CST 7:01 PM CST
Moon 3:47 PM CST (2/23) 4:44 AM CST (2/23)
Length of Visible Light 12h 03m
Length of Day
11h 11m
Waxing Gibbous, 95% of the Moon is Illuminated
Feb 23
Waxing Gibbous
Feb 25
Full
Mar 4
Last Quarter
Mar 11
New
Mar 19
First Quarter

Hourly Weather History & Observations

Time (CST) Temp. Windchill Dew Point Humidity Pressure Visibility Wind Dir Wind Speed Gust Speed Precip Events Conditions
12:53 AM 42.1 °F 38.4 °F 36.0 °F 79% 30.04 in 10.0 mi North 5.8 mph - N/A   Overcast
1:34 AM 41.0 °F 37.1 °F 35.6 °F 81% 30.03 in 10.0 mi North 5.8 mph - N/A   Mostly Cloudy
1:53 AM 39.9 °F 36.7 °F 34.0 °F 79% 30.03 in 10.0 mi NNE 4.6 mph - N/A   Overcast
2:53 AM 39.9 °F 35.1 °F 32.0 °F 73% 30.01 in 10.0 mi NNW 6.9 mph - N/A   Mostly Cloudy
3:00 AM 39.2 °F 34.2 °F 32.0 °F 75% 30.01 in 10.0 mi North 6.9 mph - N/A   Clear
3:53 AM 39.0 °F 35.7 °F 32.0 °F 76% 30.00 in 10.0 mi North 4.6 mph - N/A   Partly Cloudy
4:53 AM 37.9 °F 32.7 °F 32.0 °F 79% 30.01 in 10.0 mi North 6.9 mph - N/A   Partly Cloudy
5:46 AM 35.6 °F 31.7 °F 32.0 °F 87% 30.01 in 10.0 mi North 4.6 mph - N/A   Mostly Cloudy
5:53 AM 37.0 °F 32.4 °F 32.0 °F 82% 30.01 in 10.0 mi NNW 5.8 mph - N/A   Mostly Cloudy
6:00 AM 37.4 °F 32.8 °F 32.0 °F 81% 30.01 in 10.0 mi NNW 5.8 mph - N/A   Mostly Cloudy
6:08 AM 37.4 °F 32.8 °F 32.0 °F 81% 30.01 in 10.0 mi NNW 5.8 mph - N/A   Overcast
6:53 AM 37.9 °F 33.5 °F 32.0 °F 79% 30.01 in 10.0 mi NNW 5.8 mph - N/A   Overcast
7:53 AM 39.0 °F 33.4 °F 32.0 °F 76% 30.03 in 10.0 mi North 8.1 mph - N/A   Overcast
8:09 AM 39.2 °F 33.6 °F 32.0 °F 75% 30.03 in 10.0 mi NNE 8.1 mph - N/A   Overcast
8:53 AM 41.0 °F 37.1 °F 30.9 °F 67% 30.02 in 10.0 mi NNE 5.8 mph - N/A   Mostly Cloudy
9:53 AM 42.1 °F - 30.9 °F 65% 30.00 in 10.0 mi Calm Calm - N/A   Mostly Cloudy
10:03 AM 44.6 °F 41.4 °F 32.0 °F 61% 30.00 in 10.0 mi Variable 5.8 mph - N/A   Mostly Cloudy
10:47 AM 44.6 °F 42.2 °F 32.0 °F 61% 29.99 in 10.0 mi NNE 4.6 mph - N/A   Mostly Cloudy
10:53 AM 44.1 °F 42.5 °F 30.9 °F 60% 29.99 in 10.0 mi Variable 3.5 mph - N/A   Mostly Cloudy
11:53 AM 48.0 °F - 30.9 °F 52% 30.00 in 10.0 mi Variable 4.6 mph - N/A   Mostly Cloudy
12:53 PM 48.9 °F - 30.0 °F 48% 29.96 in 10.0 mi NW 8.1 mph - N/A   Mostly Cloudy
1:53 PM 52.0 °F - 30.0 °F 43% 29.94 in 10.0 mi NW 4.6 mph - N/A   Mostly Cloudy
2:53 PM 52.0 °F - 30.0 °F 43% 29.93 in 10.0 mi Calm Calm - N/A   Mostly Cloudy
3:53 PM 54.0 °F - 30.0 °F 40% 29.93 in 10.0 mi Variable 3.5 mph - N/A   Mostly Cloudy
4:53 PM 51.1 °F - 30.0 °F 44% 29.91 in 10.0 mi North 9.2 mph - N/A   Scattered Clouds
5:53 PM 45.0 °F 39.3 °F 28.0 °F 52% 29.94 in 10.0 mi North 11.5 mph - N/A   Partly Cloudy
6:53 PM 42.1 °F 38.4 °F 28.0 °F 58% 29.96 in 10.0 mi NNE 5.8 mph - N/A   Partly Cloudy
7:53 PM 42.1 °F 40.2 °F 28.0 °F 58% 29.98 in 10.0 mi Variable 3.5 mph - N/A   Clear
8:53 PM 42.1 °F 37.7 °F 27.0 °F 55% 29.99 in 10.0 mi NW 6.9 mph - N/A   Clear
9:53 PM 39.9 °F 35.8 °F 27.0 °F 60% 30.00 in 10.0 mi NNW 5.8 mph - N/A   Clear
10:53 PM 37.0 °F 32.4 °F 26.1 °F 65% 30.01 in 10.0 mi North 5.8 mph - N/A   Clear
11:53 PM 36.0 °F 31.1 °F 26.1 °F 67% 30.01 in 10.0 mi North 5.8 mph - N/A   Clear